Darstellungsparameter: Aktuell verwendete Einstellungen:
Skalierung der Graphiken ... ?
xyx+y,   Skalierungsfaktor:      Skalierung: Modus: x, Faktor: 1
Darstellungszeitraum ... ?
Vom - - bis: - -   Zeitraum: 16.03.2003 - 16.03.2003
Min/Max/Avg-Anzeige ... ?
Zeige MMA aktuell
Zeige MMA Monat
Zeige MMA alles
Zeige --A aktuell
Zeige --A Monat
Zeige --A alles
Keine MMA-Anzeige
MMA:
Minimum Maximum Average (ber die Originaldaten)
MMA-Basis: 23.02.2003 - 30.09.2000
Quicknavigation für Darstellung... ?
Tage:      1T, 2T, 3T, 5T -1T -2T -3T -5T +1T +2T +3T +5T
Wochen: 1W, 2W, 3W -1W -2W -3W +1W +2W +3W
Monate: 1M, 3M, 6M -1M -3M -6M +1M +3M +6M
Jahre:    1J, 3J, 5J, 10J -1J -3J -5J -10J +1J +3J +5J +10J
Nutze für die Darstellung ... ?
Originaldaten oder Mittelwerte auf ...
Stundenbasis Tagesbasis Wochenbasis
Monatsbasis Jahresbasis      Datenbasis: Original-Daten
Darstellen als:
Statistik (Auto) Statistik J:M      Darstellung:
Zur Graphik,    zurück zur Übersicht aller Sensoren.
 
Tabellarische Datenbersicht: ?
 
Sensor: Nr:Datum:Temp:Abs-Feuchte:Windchill:Wind:
Aussen-T/F 1 16-03-2003 00:06:12 2 C 3.61 g/m*3 2 C 0 km/h
2 16-03-2003 00:18:12 1.9 C 3.64 g/m*3 1.9 C 0 km/h
3 16-03-2003 00:30:12 1.8 C 3.62 g/m*3 1.8 C 0 km/h
4 16-03-2003 00:42:12 2 C 3.61 g/m*3 2 C 0 km/h
5 16-03-2003 00:54:12 2 C 3.61 g/m*3 2 C 0 km/h
6 16-03-2003 01:06:12 1.7 C 3.65 g/m*3 1.7 C 0 km/h
7 16-03-2003 01:18:12 1.5 C 3.6 g/m*3 1.5 C 0 km/h
8 16-03-2003 01:30:12 1.1 C 3.61 g/m*3 1.1 C 0 km/h
9 16-03-2003 01:42:12 0.9 C 3.66 g/m*3 0.9 C 0 km/h
10 16-03-2003 01:54:12 0.6 C 3.64 g/m*3 0.6 C 0 km/h
11 16-03-2003 02:06:12 0.3 C 3.56 g/m*3 0.3 C 0 km/h
12 16-03-2003 02:18:12 0.2 C 3.64 g/m*3 0.2 C 0 km/h
13 16-03-2003 02:30:12 0.1 C 3.61 g/m*3 0.1 C 0 km/h
14 16-03-2003 02:42:12 -0.2 C 3.54 g/m*3 -0.2 C 0 km/h
15 16-03-2003 02:54:12 -0.3 C 3.56 g/m*3 -0.3 C 0 km/h
16 16-03-2003 03:06:12 -0.5 C 3.51 g/m*3 -0.5 C 0 km/h
17 16-03-2003 03:18:12 -0.4 C 3.53 g/m*3 -0.4 C 0 km/h
18 16-03-2003 03:30:12 -0.5 C 3.51 g/m*3 -0.5 C 0 km/h
19 16-03-2003 03:42:12 -0.7 C 3.51 g/m*3 -0.7 C 0 km/h
20 16-03-2003 03:54:12 -0.9 C 3.46 g/m*3 -0.9 C 0 km/h
21 16-03-2003 04:06:12 -1.1 C 3.46 g/m*3 -1.1 C 0 km/h
22 16-03-2003 04:18:12 -1.4 C 3.39 g/m*3 -1.4 C 0 km/h
23 16-03-2003 04:30:12 -1.5 C 3.32 g/m*3 -1.5 C 0 km/h
24 16-03-2003 04:42:12 -1.5 C 3.36 g/m*3 -1.5 C 0 km/h
25 16-03-2003 04:54:12 -1.6 C 3.34 g/m*3 -1.6 C 0 km/h
Sensor: Nr:Datum:Temp:Abs-Feuchte:Windchill:Wind:
Aussen-T/F 26 16-03-2003 05:06:12 -1.6 C 3.38 g/m*3 -1.6 C 0 km/h
27 16-03-2003 05:18:12 -1.7 C 3.4 g/m*3 -1.7 C 0 km/h
28 16-03-2003 05:30:12 -1.9 C 3.31 g/m*3 -1.9 C 0 km/h
29 16-03-2003 05:42:12 -1.9 C 3.35 g/m*3 -1.9 C 0 km/h
30 16-03-2003 05:54:12 -2 C 3.37 g/m*3 -2 C 0 km/h
31 16-03-2003 06:06:12 -1.9 C 3.4 g/m*3 -1.9 C 0 km/h
32 16-03-2003 06:18:12 -2 C 3.37 g/m*3 -2 C 0 km/h
33 16-03-2003 06:30:12 -1.9 C 3.44 g/m*3 -1.9 C 0 km/h
34 16-03-2003 06:42:12 -2 C 3.41 g/m*3 -2 C 0 km/h
35 16-03-2003 06:54:12 -2.1 C 3.39 g/m*3 -2.1 C 0 km/h
36 16-03-2003 07:06:12 -2.1 C 3.39 g/m*3 -2.1 C 0 km/h
37 16-03-2003 07:18:12 -2.1 C 3.39 g/m*3 -2.1 C 0 km/h
38 16-03-2003 07:30:12 -2 C 3.46 g/m*3 -2 C 0 km/h
39 16-03-2003 07:42:12 -2.1 C 3.39 g/m*3 -2.1 C 0 km/h
40 16-03-2003 07:54:12 -1.9 C 3.48 g/m*3 -1.9 C 0 km/h
41 16-03-2003 08:06:12 -1.9 C 3.48 g/m*3 -1.9 C 0 km/h
42 16-03-2003 08:18:12 -1.7 C 3.53 g/m*3 -1.7 C 0 km/h
43 16-03-2003 08:30:12 -1.5 C 3.58 g/m*3 -1.5 C 0 km/h
44 16-03-2003 08:42:12 -1.4 C 3.6 g/m*3 -1.4 C 0 km/h
45 16-03-2003 08:54:12 -1.1 C 3.68 g/m*3 -1.1 C 0 km/h
46 16-03-2003 09:06:12 -0.8 C 3.71 g/m*3 -0.8 C 0 km/h
47 16-03-2003 09:18:12 0.1 C 3.9 g/m*3 0.1 C 0 km/h
48 16-03-2003 09:30:12 0.8 C 3.94 g/m*3 0.8 C 0 km/h
49 16-03-2003 09:42:12 1.8 C 4.11 g/m*3 1.8 C 0 km/h
50 16-03-2003 09:54:12 2.7 C 4.08 g/m*3 2.7 C 0 km/h
Sensor: Nr:Datum:Temp:Abs-Feuchte:Windchill:Wind:
Aussen-T/F 51 16-03-2003 10:06:14 3.4 C 4.03 g/m*3 3.4 C 0 km/h
52 16-03-2003 10:18:14 4.3 C 4.15 g/m*3 4.3 C 0 km/h
53 16-03-2003 10:30:14 4.9 C 4.12 g/m*3 4.9 C 0 km/h
54 16-03-2003 10:42:14 5.7 C 3.91 g/m*3 5.7 C 0 km/h
55 16-03-2003 10:54:14 6.5 C 3.75 g/m*3 6.5 C 0 km/h
56 16-03-2003 11:06:13 7.2 C 3.69 g/m*3 7.2 C 0 km/h
57 16-03-2003 11:18:13 7.8 C 3.51 g/m*3 7.8 C 0 km/h
58 16-03-2003 11:30:13 8.2 C 3.43 g/m*3 8.2 C 0 km/h
59 16-03-2003 11:42:13 8.8 C 3.57 g/m*3 8.8 C 0 km/h
60 16-03-2003 11:54:13 9.2 C 3.39 g/m*3 9.2 C 0 km/h
61 16-03-2003 12:06:13 9.8 C 3.34 g/m*3 9.8 C 0 km/h
62 16-03-2003 12:18:13 10.7 C 3.44 g/m*3 10.7 C 0 km/h
63 16-03-2003 12:30:13 11.2 C 3.34 g/m*3 11.2 C 0 km/h
64 16-03-2003 12:42:13 11 C 3.1 g/m*3 11 C 0 km/h
65 16-03-2003 12:54:13 11.7 C 3.35 g/m*3 11.7 C 0 km/h
66 16-03-2003 13:06:13 11.8 C 3.47 g/m*3 11.8 C 0 km/h
67 16-03-2003 13:18:13 12 C 3.52 g/m*3 12 C 0 km/h
68 16-03-2003 13:30:13 12 C 3.41 g/m*3 12 C 0 km/h
69 16-03-2003 13:42:13 12.5 C 3.63 g/m*3 12.5 C 0 km/h
70 16-03-2003 13:54:13 13 C 3.52 g/m*3 13 C 0 km/h
71 16-03-2003 14:06:13 13.4 C 3.49 g/m*3 13.4 C 0 km/h
72 16-03-2003 14:18:13 13.9 C 3.48 g/m*3 13.9 C 0 km/h
73 16-03-2003 14:30:13 14.2 C 3.42 g/m*3 14.2 C 0 km/h
74 16-03-2003 14:42:13 14.4 C 3.46 g/m*3 14.4 C 0 km/h
75 16-03-2003 14:54:13 14.8 C 3.42 g/m*3 14.8 C 0 km/h
Sensor: Nr:Datum:Temp:Abs-Feuchte:Windchill:Wind:
Aussen-T/F 76 16-03-2003 15:06:14 15.2 C 3.24 g/m*3 15.2 C 0 km/h
77 16-03-2003 15:18:14 15.9 C 3.39 g/m*3 15.9 C 0 km/h
78 16-03-2003 15:30:14 16 C 3.41 g/m*3 16 C 0 km/h
79 16-03-2003 15:42:14 16 C 3.27 g/m*3 16 C 0 km/h
80 16-03-2003 15:54:14 16.4 C 3.49 g/m*3 16.4 C 0 km/h
81 16-03-2003 16:06:13 16.2 C 3.03 g/m*3 16.2 C 0 km/h
82 16-03-2003 16:18:13 16.4 C 3.35 g/m*3 16.4 C 0 km/h
83 16-03-2003 16:30:13 16.5 C 3.23 g/m*3 16.5 C 0 km/h
84 16-03-2003 16:42:13 16.1 C 3.02 g/m*3 16.1 C 0 km/h
85 16-03-2003 16:54:13 16.4 C 3.49 g/m*3 16.4 C 0 km/h
86 16-03-2003 17:06:13 16.1 C 3.43 g/m*3 16.1 C 0 km/h
87 16-03-2003 17:18:13 16 C 3.41 g/m*3 16 C 0 km/h
88 16-03-2003 17:30:13 16 C 3.81 g/m*3 16 C 0 km/h
89 16-03-2003 17:42:13 15.3 C 3.4 g/m*3 15.3 C 0 km/h
90 16-03-2003 17:54:13 14.8 C 3.8 g/m*3 14.8 C 0 km/h
91 16-03-2003 18:06:13 13.8 C 3.93 g/m*3 13.8 C 0 km/h
92 16-03-2003 18:18:13 13 C 3.97 g/m*3 13 C 0 km/h
93 16-03-2003 18:30:13 11.4 C 4.11 g/m*3 11.4 C 0 km/h
94 16-03-2003 18:42:13 10.1 C 3.97 g/m*3 10.1 C 0 km/h
95 16-03-2003 18:54:13 9.7 C 3.96 g/m*3 9.7 C 0 km/h
96 16-03-2003 19:06:13 9.2 C 4.02 g/m*3 9.2 C 0 km/h
97 16-03-2003 19:18:13 8.5 C 4.1 g/m*3 8.5 C 0 km/h
98 16-03-2003 19:30:13 8.1 C 3.99 g/m*3 8.1 C 0 km/h
99 16-03-2003 19:43:14 7.6 C 4.11 g/m*3 7.6 C 0 km/h
100 16-03-2003 19:55:14 7.3 C 4.11 g/m*3 7.3 C 0 km/h
Sensor: Nr:Datum:Temp:Abs-Feuchte:Windchill:Wind:
Aussen-T/F 101 16-03-2003 20:07:14 7 C 4.26 g/m*3 7 C 0 km/h
102 16-03-2003 20:19:14 6.7 C 4.26 g/m*3 6.7 C 0 km/h
103 16-03-2003 20:31:14 6.5 C 4.2 g/m*3 6.5 C 0 km/h
104 16-03-2003 20:43:14 6.3 C 4.22 g/m*3 6.3 C 0 km/h
105 16-03-2003 20:55:14 6 C 4.21 g/m*3 6 C 0 km/h
106 16-03-2003 21:07:14 5.8 C 4.3 g/m*3 5.8 C 0 km/h
107 16-03-2003 21:19:14 5.4 C 4.19 g/m*3 5.4 C 0 km/h
108 16-03-2003 21:31:14 5.1 C 4.24 g/m*3 5.1 C 0 km/h
109 16-03-2003 21:43:14 4.9 C 4.25 g/m*3 4.9 C 0 km/h
110 16-03-2003 21:55:14 4.5 C 4.21 g/m*3 4.5 C 0 km/h
111 16-03-2003 22:07:14 4.2 C 4.19 g/m*3 4.2 C 0 km/h
112 16-03-2003 22:19:14 3.7 C 4.18 g/m*3 3.7 C 0 km/h
113 16-03-2003 22:31:14 3.8 C 4.33 g/m*3 3.8 C 0 km/h
114 16-03-2003 22:43:14 3.6 C 4.27 g/m*3 3.6 C 0 km/h
115 16-03-2003 22:55:14 3.4 C 4.28 g/m*3 3.4 C 0 km/h
116 16-03-2003 23:07:14 3.4 C 4.28 g/m*3 3.4 C 0 km/h
117 16-03-2003 23:19:14 3.2 C 4.22 g/m*3 3.2 C 0 km/h
118 16-03-2003 23:31:14 3 C 4.22 g/m*3 3 C 0 km/h
119 16-03-2003 23:43:14 3 C 4.16 g/m*3 3 C 0 km/h
120 16-03-2003 23:55:14 2.7 C 4.14 g/m*3 2.7 C 0 km/h

Legende:
   Min
   Max


Maximal/Minimal-Werte vom 23.02.2003 - 30.09.2000

Sensor Min Max Avg
Temp
(Aussen-T/F)
°C
-- 
°C 0 °C

Die Daten stammen von einer Davis Vantage Pro 2 Wetter-Station und werden unter Linux mit der Software wview2wettercgi und aufbereitet. Alle Angaben erfolgen ohne Gewähr für ihre Vollständigkeit oder Richtigkeit.
Kontakt: Rainer Krienke krienke@uni-koblenz.de . Meine Webseiten an der Uni Koblenz oder privat.
Version: $Revision: 0.78 $